EN

Hourly Weather Abanto

Today, 2 December, Wednesday

Time Temperature Precipitation Wind Pressure Humidity
00:00 +4°C° 0 mm 3 mps 680 mmHg 70%
01:00 +4°C° 0 mm 4 mps 679 mmHg 71%
02:00 +4°C° 0 mm 4 mps 679 mmHg 72%
03:00 +3°C° 0 mm 5 mps 679 mmHg 73%
04:00 +2°C° 0 mm 6 mps 679 mmHg 73%
05:00 +1°C° 0 mm 6 mps 679 mmHg 73%
06:00 -1°C° 0 mm 7 mps 679 mmHg 73%
07:00 -1°C° 0 mm 8 mps 679 mmHg 72%
08:00 -1°C° 0 mm 9 mps 679 mmHg 71%
09:00 0°C° 0 mm 10 mps 679 mmHg 70%
10:00 -1°C° 0 mm 11 mps 679 mmHg 65%
11:00 0°C° 0 mm 12 mps 679 mmHg 61%
12:00 0°C° 0 mm 12 mps 679 mmHg 56%
13:00 0°C° 0 mm 12 mps 679 mmHg 58%
14:00 +1°C° 0 mm 11 mps 679 mmHg 59%
15:00 +1°C° 0 mm 10 mps 679 mmHg 61%
16:00 0°C° 0 mm 8 mps 679 mmHg 66%
17:00 -1°C° 0 mm 7 mps 679 mmHg 72%
18:00 -1°C° 0 mm 5 mps 679 mmHg 77%
19:00 -1°C° 0 mm 4 mps 679 mmHg 80%
20:00 -2°C° 0 mm 4 mps 679 mmHg 83%
21:00 -1°C° 0 mm 3 mps 680 mmHg 86%
22:00 -1°C° 0 mm 3 mps 680 mmHg 86%
23:00 -1°C° 0 mm 3 mps 679 mmHg 85%

Tomorrow, 3 December, Thursday

Time Temperature Precipitation Wind Pressure Humidity
00:00 -2°C° 0 mm 2 mps 679 mmHg 85%
01:00 -2°C° 0 mm 2 mps 679 mmHg 85%
02:00 -2°C° 0 mm 2 mps 679 mmHg 85%
03:00 -2°C° 0 mm 2 mps 678 mmHg 85%
04:00 -2°C° 0 mm 2 mps 678 mmHg 83%
05:00 -2°C° 0 mm 2 mps 677 mmHg 82%
06:00 -2°C° 0 mm 2 mps 677 mmHg 81%
07:00 -1°C° 0 mm 2 mps 677 mmHg 77%
08:00 +1°C° 0 mm 2 mps 677 mmHg 73%
09:00 +2°C° 0 mm 2 mps 677 mmHg 69%
10:00 +2°C° 0 mm 3 mps 676 mmHg 64%
11:00 +4°C° 0 mm 4 mps 676 mmHg 59%
12:00 +6°C° 0 mm 5 mps 675 mmHg 54%
13:00 +5°C° 0 mm 6 mps 674 mmHg 53%
14:00 +5°C° 0 mm 7 mps 673 mmHg 51%
15:00 +5°C° 0 mm 8 mps 672 mmHg 50%
16:00 +2°C° 0 mm 9 mps 672 mmHg 52%
17:00 +1°C° 0 mm 9 mps 671 mmHg 54%
18:00 0°C° 0 mm 10 mps 671 mmHg 57%
19:00 0°C° 0 mm 10 mps 670 mmHg 59%
20:00 0°C° 0 mm 9 mps 670 mmHg 62%
21:00 0°C° 0 mm 9 mps 670 mmHg 65%
22:00 0°C° 0 mm 9 mps 669 mmHg 66%
23:00 0°C° 0 mm 10 mps 668 mmHg 68%

Day after tomorrow, 4 December, Friday

Time Temperature Precipitation Wind Pressure Humidity
00:00 +1°C° 0 mm 10 mps 667 mmHg 70%
01:00 -1°C° 0 mm 11 mps 666 mmHg 73%
02:00 -1°C° 0 mm 12 mps 665 mmHg 76%
03:00 -1°C° 0 mm 12 mps 665 mmHg 79%
04:00 -1°C° 0.7 mm 12 mps 664 mmHg 81%
05:00 -1°C° 0.7 mm 11 mps 664 mmHg 83%
06:00 -2°C° 0.7 mm 11 mps 664 mmHg 84%
07:00 -2°C° 0 mm 10 mps 664 mmHg 77%
08:00 -2°C° 0 mm 10 mps 664 mmHg 70%
09:00 -1°C° 0 mm 9 mps 664 mmHg 62%
10:00 0°C° 0 mm 9 mps 664 mmHg 59%
11:00 0°C° 0 mm 9 mps 664 mmHg 55%
12:00 +1°C° 0 mm 9 mps 664 mmHg 52%
13:00 +1°C° 0 mm 9 mps 664 mmHg 51%
14:00 +1°C° 0 mm 9 mps 663 mmHg 50%
15:00 0°C° 0 mm 9 mps 663 mmHg 49%
16:00 -1°C° 0 mm 8 mps 663 mmHg 55%
17:00 -2°C° 0 mm 7 mps 663 mmHg 61%
18:00 -3°C° 0 mm 6 mps 664 mmHg 67%
19:00 -3°C° 0 mm 6 mps 664 mmHg 70%
20:00 -4°C° 0 mm 6 mps 664 mmHg 74%
21:00 -4°C° 0 mm 6 mps 664 mmHg 77%
22:00 -4°C° 0 mm 6 mps 664 mmHg 78%
23:00 -4°C° 0 mm 6 mps 665 mmHg 80%

5 December, Saturday

Time Temperature Precipitation Wind Pressure Humidity
00:00 -4°C° 0 mm 6 mps 665 mmHg 81%
01:00 -4°C° 0 mm 6 mps 665 mmHg 81%
02:00 -4°C° 0 mm 7 mps 665 mmHg 80%
03:00 -6°C° 0 mm 7 mps 665 mmHg 79%
04:00 -4°C° 0 mm 7 mps 666 mmHg 78%
05:00 -5°C° 0 mm 8 mps 666 mmHg 77%
06:00 -5°C° 0 mm 8 mps 666 mmHg 76%
07:00 -5°C° 0 mm 9 mps 667 mmHg 74%
08:00 -4°C° 0 mm 9 mps 667 mmHg 71%
09:00 -4°C° 0 mm 9 mps 668 mmHg 68%
10:00 -3°C° 0 mm 10 mps 668 mmHg 66%
11:00 -2°C° 0 mm 10 mps 668 mmHg 64%
12:00 -1°C° 0 mm 11 mps 668 mmHg 62%
13:00 0°C° 0 mm 10 mps 668 mmHg 62%
14:00 0°C° 0 mm 10 mps 668 mmHg 61%
15:00 0°C° 0 mm 9 mps 669 mmHg 61%
16:00 -1°C° 0 mm 9 mps 669 mmHg 65%
17:00 -2°C° 0 mm 8 mps 669 mmHg 70%
18:00 -3°C° 0 mm 7 mps 669 mmHg 74%
19:00 -4°C° 0 mm 8 mps 670 mmHg 75%
20:00 -4°C° 0 mm 9 mps 670 mmHg 76%
21:00 -4°C° 0 mm 9 mps 670 mmHg 78%
22:00 -4°C° 0 mm 9 mps 670 mmHg 78%
23:00 -5°C° 0 mm 9 mps 670 mmHg 78%

6 December, Sunday

Time Temperature Precipitation Wind Pressure Humidity
00:00 -5°C° 0 mm 9 mps 670 mmHg 78%
01:00 -5°C° 0 mm 9 mps 670 mmHg 79%
02:00 -5°C° 0 mm 8 mps 670 mmHg 80%
03:00 -5°C° 0 mm 8 mps 670 mmHg 82%
04:00 -5°C° 0 mm 8 mps 670 mmHg 82%
05:00 -5°C° 0 mm 9 mps 670 mmHg 81%
06:00 -5°C° 0 mm 9 mps 670 mmHg 81%
07:00 -5°C° 0 mm 10 mps 670 mmHg 77%
08:00 -4°C° 0 mm 10 mps 671 mmHg 73%
09:00 -3°C° 0 mm 11 mps 671 mmHg 70%
10:00 -2°C° 0 mm 12 mps 671 mmHg 65%
11:00 -1°C° 0 mm 12 mps 671 mmHg 61%
12:00 0°C° 0 mm 12 mps 671 mmHg 56%
13:00 0°C° 0 mm 12 mps 671 mmHg 56%
14:00 +1°C° 0 mm 11 mps 671 mmHg 56%
15:00 +1°C° 0 mm 10 mps 671 mmHg 56%
16:00 0°C° 0 mm 9 mps 671 mmHg 64%
17:00 -1°C° 0 mm 8 mps 671 mmHg 71%
18:00 -2°C° 0 mm 7 mps 672 mmHg 78%
19:00 -3°C° 0 mm 7 mps 672 mmHg 79%
20:00 -3°C° 0 mm 7 mps 672 mmHg 80%
21:00 -3°C° 0 mm 6 mps 673 mmHg 81%
22:00 -4°C° 0 mm 6 mps 673 mmHg 83%
23:00 -4°C° 0 mm 6 mps 673 mmHg 85%

7 December, Monday

Time Temperature Precipitation Wind Pressure Humidity
00:00 -4°C° 0 mm 6 mps 673 mmHg 87%
01:00 -4°C° 0 mm 6 mps 673 mmHg 86%
02:00 -4°C° 0 mm 6 mps 673 mmHg 85%
03:00 -4°C° 0 mm 6 mps 674 mmHg 84%
04:00 -4°C° 0 mm 6 mps 674 mmHg 85%
05:00 -4°C° 0 mm 5 mps 674 mmHg 86%
06:00 -5°C° 0 mm 5 mps 674 mmHg 87%
07:00 -4°C° 0 mm 5 mps 675 mmHg 82%
08:00 -3°C° 0 mm 6 mps 676 mmHg 77%
09:00 -2°C° 0 mm 6 mps 676 mmHg 72%
10:00 -1°C° 0 mm 6 mps 676 mmHg 68%
11:00 0°C° 0 mm 7 mps 677 mmHg 64%
12:00 +2°C° 0 mm 7 mps 677 mmHg 59%
13:00 +2°C° 0 mm 7 mps 677 mmHg 58%
14:00 +3°C° 0 mm 6 mps 676 mmHg 57%
15:00 +3°C° 0 mm 6 mps 676 mmHg 56%
16:00 +2°C° 0 mm 6 mps 676 mmHg 61%
17:00 +1°C° 0 mm 6 mps 676 mmHg 65%
18:00 -2°C° 0 mm 6 mps 676 mmHg 70%
19:00 -1°C° 0 mm 7 mps 676 mmHg 68%
20:00 -1°C° 0 mm 8 mps 676 mmHg 66%
21:00 -1°C° 0 mm 8 mps 675 mmHg 63%
22:00 0°C° 0.3 mm 9 mps 675 mmHg 70%
23:00 +1°C° 0.3 mm 9 mps 674 mmHg 77%
Show more